Location: Écuvilly
(49.6505°N, 2.9206°E)
Time: 17:06:00
(UTC+00:00)

Cosmos 1833 Rocket - Pass Details

Date: 17 November 2025
Orbit: 829 x 840 km, 71.0° (Epoch: 12 December)

Event Time Altitude Azimuth Distance (km) Brightness Sun altitude
Rises 16:38:31 0° 330° (NNW) 3,406 6.0 -6.0°
Reaches altitude 10° 16:40:58 10° 329° (NNW) 2,468 5.3 -6.4°
Maximum altitude 16:46:37 76° 245° (WSW) 869 3.0 -7.3°
Drops below altitude 10° 16:52:14 10° 160° (SSE) 2,450 5.1 -8.1°
Sets 16:54:40 0° 159° (SSE) 3,379 5.8 -8.5°
